Location: Bethel Cemetery
(33.4585°N, 96.4003°W)
Time: 06:16:02
(UTC+00:00)

STARLINK-35646 - Pass Details

Date: 11 December 2025
Orbit: 482 x 484 km, 43.0° (Epoch: 20 January)

Event Time Altitude Azimuth Distance (km) Brightness Sun altitude
Exits shadow 12:35:57 - 254° (WSW) 1,888 4.9 -9.1°
Reaches altitude 10° 12:36:34 10° 256° (WSW) 1,651 4.6 -9.0°
Maximum altitude 12:40:14 53° 334° (NNW) 599 2.5 -8.3°
Drops below altitude 10° 12:43:57 10° 52° (NE) 1,662 5.5 -7.6°
Sets 12:46:11 0° 58° (ENE) 2,546 6.6 -7.2°
